347P/PanSTARRS (2016)

Japanese version
Home page
Updated on March 25, 2017

---------------------------------------------------------------------

* Profile

Designation 347P/2016 SV
Discovery Date September 21, 2016
Magnitude 19.3 mag
Discoverer Pan-STARRS 1 telescope (Haleakala)

* Pictures

* Orbital Elements

Epoch 2016 Sept. 9.0 TT = JDT 2457640.5
T 2016 Sept. 11.40038 TT                                MPCW
q   2.2239884            (2000.0)            P               Q
n   0.14353556     Peri.   98.45094     +0.97950851     +0.01179764
a   3.6126818      Node   261.04721     -0.08516290     +0.92890605
e   0.3843940      Incl.   11.74385     +0.18251128     +0.37012750
P   6.87
From 139 observations 2002 July 12-2017 Jan. 1, mean residual 0".5.

* Magnitudes Graph

        m1 = 9.0 + 5 log d + 25.0 log r(t - 100)

---------------------------------------------------------------------

The orbital elements are published on M.P.E.C. 2017-A77.
The magnitudes graphs are made with Comet for Windows.

---------------------------------------------------------------------

Copyright(C) Seiichi Yoshida (comet@aerith.net). All rights reserved.